www.pogodaiklimat.ru

Погода и климат >> Архив погоды >> Беларусь >> Житковичи


ПОГОДА в Житковичах

АРХИВ ПОГОДЫ в Житковичах

Время (UTC), дата Ветер
(напр.,м/с)
 
Видим.   Явления Облачность Т
(С)
Тd
(С)
f
(%)
Тe
(С)
Тes
(С)
Комфортность P
(гПа)
Po
(гПа)
Тmin
(С)
Tmax
(С)
R
(мм)
R24
(мм)
S
(см)
06 17.02 З 3 4000 м дымка 8/0
[Ac trans Ci fib]
-0.1 -1.0 94 -5 -5 по сезону 1018.1 1000.9 -0.1
09 17.02 З 4 10 км 9/6 600 м
[Sc Ac trans]
+4.1 +0.4 77 -0 0 тепло 1018.3 1001.4
12 17.02 З 4 10 км 9/9 600 м
[Sc]
+5.9 +1.7 74 +2 +2 тепло 1018.4 1001.6
15 17.02 СЗ 4 10 км 9/9 600 м
[Sc]
+5.7 +2.0 77 +2 +2 тепло 1018.7 1001.9
18 17.02 СЗ 3 10 км 9/9 300 м
[Sc]
+4.8 +2.3 84 +1 +1 тепло 1020.0 1003.1 +6.3
21 17.02 СЗ 2 4000 м дымка 9/0
[Ci fib]
+3.2 +1.7 90 0 0 тепло 1004.3
00 18.02 З 2 4000 м дымка 9/0
[Ci fib]
+1.3 +0.5 94 -2 -2 тепло 1022.1 1005.0
03 18.02 СЗ 2 4000 м дымка 9/0
[Ci fib]
0.0 -0.6 96 -4 -4 по сезону 1023.3 1006.0
06 18.02 штиль 0 4000 м дымка 6/0
[Ci fib]
-1.7 -2.3 96 -3 -3 тепло 1024.6 1007.2 -1.8
09 18.02 штиль 0 10 км 4/0
[Ci fib]
+1.7 -1.7 78 +1 +6 тепло 1026.0 1008.8
12 18.02 СВ 2 20 км 6/0
[Cc]
+5.4 -8.1 37 +4 +7 тепло 1025.1 1008.1
15 18.02 СВ 1 20 км 3/0
[Ci fib]
+4.1 -5.8 48 +3 +3 тепло 1024.7 1007.6
18 18.02 штиль 0 10 км 3/0
[Ci fib]
-2.1 -4.0 87 -3 -3 по сезону 1025.4 1007.9 +5.9
21 18.02 штиль 0 4000 м дымка ясно -4.2 -5.4 91 -5 -5 по сезону 1025.3 1007.7
00 19.02 штиль 0 4000 м дымка ясно -5.2 -6.2 93 -6 -6 по сезону 1025.3 1007.7
03 19.02 штиль 0 4000 м дымка ясно -5.4 -6.8 90 -6 -6 по сезону 1023.7 1006.1
06 19.02 штиль 0 10 км ясно -4.8 -8.0 78 -6 -5 по сезону 1022.3 1004.8 -5.5
09 19.02 Ю 2 20 км 3/0
[Ci fib]
+4.4 -3.0 59 +2 +6 тепло 1020.1 1003.1
12 19.02 Ю 5 20 км 4/0
[Ci fib]
+9.0 0.0 53 +6 +8 тепло 1017.4 1000.8
15 19.02 Ю 3 20 км 3/0
[Ci fib]
+8.7 -1.4 49 +7 +7 тепло 1014.5 997.9
18 19.02 Ю 3 10 км 4/0
[Ci fib]
+5.0 +2.0 81 +2 +2 тепло 1012.8 996.1 +9.2
21 19.02 Ю 2 10 км 4/0
[Ci fib]
+3.6 +1.5 86 +1 +1 тепло 1011.5 994.7
00 20.02 ЮЗ 2 10 км 8/0
[Ci fib]
+2.9 +0.8 86 -0 -0 тепло 1010.3 993.5
03 20.02 ЮЗ 2 4000 м слаб. ливневой дождь 10/8 600 м
[Cb cap Ac und]
+2.7 +0.9 88 -1 -1 тепло 1010.2 993.4
06 20.02 ЮЗ 3 4000 м дымка {ливн. осадки} 9/0
[Ac trans Ci fib]
+2.2 +1.2 93 -2 -2 тепло 1010.6 993.6 +2.2 0.4
09 20.02 З 4 10 км 10/4 600 м
[Cb cap Ac und]
+5.2 +2.2 81 +1 +2 тепло 1010.7 994.0
12 20.02 З 7-12
{11}
4000 м слаб. ливневой дождь 10/8 600 м
[Cb cap Ac und]
+5.9 +1.7 74 +1 +1 тепло 1010.3 993.6
15 20.02 З 4
{12}
10 км 8/5 600 м
[Cb cap Ac trans]
+5.6 +0.5 70 +2 +2 тепло 1010.5 993.8
18 20.02 З 4 10 км 9/9 600 м
[Sc]
+5.1 -0.2 69 +1 +1 тепло 1010.7 994.0 +7.8 0.0
21 20.02 СЗ 5-10
{10}
4000 м слаб. ливневой дождь 10/8 600 м
[Cb cap Ac und]
+3.4 +0.8 83 -2 -2 тепло 1011.1 994.3
00 21.02 З 4
{12}
10 км {ливн. осадки} 6/6 600 м
[Sc]
+1.8 -2.3 74 -3 -3 по сезону 1012.7 995.7
03 21.02 СЗ 4
{12}
10 км 8/8 600 м
[Sc]
-0.3 -6.5 63 -5 -5 по сезону 1014.5 997.4
06 21.02 СЗ 4
{11}
10 км 8/6 600 м
[Sc Ci fib]
-1.6 -5.3 76 -7 -7 по сезону 1016.2 998.9 -1.8 0.0
09 21.02 СЗ 5
{10}
10 км 9/6 600 м
[Sc Cs]
-0.9 -6.2 67 -7 -6 по сезону 1017.6 1000.4
12 21.02 СЗ 5-10
{11}
10 км 9/3 600 м
[Sc Cs]
-0.4 -5.5 68 -6 -5 по сезону 1018.0 1000.8
15 21.02 С 5
{10}
10 км 8/0
[Ci fib]
-0.3 -6.5 63 -6 -6 по сезону 1018.4 1001.2
18 21.02 С 2 10 км 8/0
[Ci fib]
-1.9 -7.2 67 -5 -5 по сезону 1019.4 1002.1 +1.0
21 21.02 С 3 10 км 9/9 1000 м
[Sc]
-2.1 -7.1 69 -7 -7 по сезону 1020.4 1003.0
00 22.02 С 4
{10}
10 км 10/0
[Cs]
-4.9 -10.2 66 -11 -11 прохладно 1021.8 1004.3
03 22.02 С 4
{10}
10 км 6/0
[Ac trans]
-6.7 -12.3 64 -13 -13 прохладно 1023.6 1006.0
06 22.02 С 3 20 км ясно -7.8 -13.9 62 -13 -13 прохладно 1025.8 1007.9 -8.1
09 22.02 С 7-13
{14}
20 км ясно -4.8 -13.1 52 -13 -11 холодно 1026.6 1009.0
12 22.02 С 7-13
{15}
20 км 4/0
[Ac trans]
-2.9 -13.1 45 -10 -9 холодно 1027.2 1009.7
15 22.02 С 7-13
{16}
20 км 10/3 600 м
[Sc Ac As]
-3.1 -12.9 47 -10 -10 холодно 1029.1 1011.6
18 22.02 С 4
{14}
10 км 3/0
[Ac trans]
-4.5 -12.1 55 -10 -10 прохладно 1032.5 1014.8 -2.7
21 22.02 СВ 4
{10}
10 км ясно -5.5 -12.6 57 -12 -12 холодно 1036.0 1018.1
00 23.02 С 3 10 км 3/0
[Ci fib]
-6.8 -13.5 59 -12 -12 прохладно 1038.0 1020.1
03 23.02 С 3 10 км ясно -7.7 -12.7 67 -13 -13 прохладно 1040.1 1022.1
06 23.02 С 1 10 км 3/0
[Ci fib]
-8.1 -13.8 63 -10 -10 по сезону 1041.6 1023.5 -8.1
09 23.02 С 2 20 км 4/0
[Ci fib]
-4.5 -10.6 62 -8 -4 по сезону 1042.6 1024.7
12 23.02 С 1 20 км 8/0
[Ac trans Ci fib]
-0.7 -13.5 37 -2 +1 по сезону 1041.6 1024.0
15 23.02 СЗ 1 20 км 10/0
[Ac trans Cs]
-0.4 -7.5 59 -2 -2 по сезону 1040.3 1022.7
18 23.02 З 2 10 км 10/0
[As op]
-1.3 -8.0 60 -5 -5 по сезону 1039.0 1021.4 -0.2
21 23.02 З 3 10 км 10/0
[As op]
-1.4 -8.6 58 -6 -6 по сезону 1037.3 1019.7
00 24.02 З 2 10 км 9/9 600 м
[Sc]
-1.6 -7.2 66 -5 -5 по сезону 1035.5 1017.9
03 24.02 З 3 10 км 9/9 600 м
[Sc]
-1.6 -7.6 64 -6 -6 по сезону 1033.9 1016.3

 

Местоположение метеостанции Житковичи (Гомельская область, Беларусь): широта 52.22 долгота 27.87 высота над уровнем моря 137 м.

В архиве по умолчанию представлена погода в Житковичах за последнюю неделю. Архивные данные за месяц целиком и за предыдущие месяцы, начиная с января 2011 года, Вы можете получить, выбрав интересующий диапазон дат из раскрывающегося списка и нажав кнопку "Ввод!".


*Определитесь, кто Вы:
робот инопланетянин человек

Внимание! Время в таблицах - всемирное. Для получения местного времени необходимо прибавить поправку, которая равна 3 ч.

Смотрите также архив погоды в соседних городах и на ближайших метеорологических станциях:

Погода в Полесской (Брестская область, Беларусь) (80 км)
Погода в Октябре (Гомельская область, Беларусь) (82 км)
Погода в Мозыре (Гомельская область, Беларусь) (92 км)
Погода в Слуцке (Минская область, Беларусь) (93 км)
Погода в Олевске (Житомирская область, Украина) (112 км)
Погода в Ганцевичах (Брестская область, Беларусь) (113 км)
Погода в Овруче (Житомирская область, Украина) (118 км)
Погода в Пинске (Брестская область, Беларусь) (124 км)
Погода в Василевичах (Гомельская область, Беларусь) (134 км)
Погода в Сарнах (Ровенская область, Украина) (135 км)

Пояснения к столбцам:

Ветер - указаны скорость ветра в м/с - средняя за 10 мин, порывы в срок и между сроками (в фигурных скобках) и направление, откуда дует ветер: С - северный, СВ - северо-восточный, В - восточный, ЮВ - юго-восточный, Ю - южный, ЮЗ - юго-западный, З - западный, СЗ - северо-западный.
Видимость - горизонтальная дальность видимости в метрах или километрах. При видимости от 1 до 10 км при отсутствии осадков обычно наблюдается дымка, при ухудшении видимости до 1 км и менее - туман. В сухую погоду видимость может ухудшаться дымом, пылью или мглою.
Явления - указаны атмосферные явления, наблюдавшиеся в срок или в последний час перед сроком; фигурными скобками обозначены явления, наблюдавшиеся между сроками (за 1-3 часа до срока); квадратными скобками обозначены град или гололедные отложения с указанием их диаметра в мм.
Облачность - указаны через наклонную черту общая и нижняя облачность в баллах и высота нижней границы облаков в метрах; квадратными скобками обозначены формы облаков: Ci - перистые, Cs - перисто-слоистые, Cc - перисто-кучевые, Ac - высококучевые, As - высокослоистые, Sc - слоисто-кучевые, Ns - слоисто-дождевые, Cu - кучевые, Cb - кучево-дождевые. Подробнее классификацию облаков см. в Атласе облаков (PDF).
T - Температура воздуха - температура, измеренная на высоте 2 м над землей.
Td - Температура точки росы - температура, при понижении до которой содержащийся в воздухе водяной пар достигнет насыщения.
f - Относительная влажность воздуха - влажноcть воздуха, измеренная на высоте 2 м над землей.
Te - Эффективная температура - температура, которую ощущает одетый по сезону человек в тени. Характеристика душности погоды. При расчете учитывается влияние влажности воздуха и скорости ветра на теплоощущения человека.
Tes - Эффективная температура на солнце - температура, которую ощущает человек, с поправкой на солнечный нагрев. Характеристика знойности погоды. Зависит от высоты солнца над горизонтом, облачности и скорости ветра. Ночью, в пасмурную погоду, а также при ветре 12 м/с и более поправка равна нулю.
P - Атмосферное давление - приведенное к уровню моря атмосферное давление.
Po - Атмосферное давление - измеренное на уровне метеостанции атмосферное давление.
Tmin - Минимальная температура - минимум температуры воздуха на высоте 2 м над землей.
Tmax - Максимальная температура - максимум температуры воздуха на высоте 2 м над землей.
R - Количество осадков - Количество выпавших осадков за период времени, мм. При наведении курсора мыши на число - период времени, за который выпало указанное количество осадков.
R24 - Количество осадков - Количество выпавших осадков за 24 часа, мм.
S - Снежный покров - Высота снежного покрова, см. При наведении курсора мыши на число - состояние снежного покрова и степень покрытия местности в баллах.